Weather History for Columbia, MO

Change the Weather History Date:

Saturday, March 9, 2013

  Actual Average Record
Temperature  
Mean Temperature 53 °F 42 °F  
Max Temperature 67 °F 53 °F 80 °F (1986)
Min Temperature 39 °F 32 °F 7 °F (1969)
Degree Days  
Heating Degree Days 12 23  
Month to date heating degree days 275 220  
Since 1 July heating degree days 3858 4166  
Cooling Degree Days 0 0  
Month to date cooling degree days 0 0  
Year to date cooling degree days 1 0  
Growing Degree Days 2 (Base 50)    
Moisture  
Dew Point 38 °F    
Average Humidity 65    
Maximum Humidity 92    
Minimum Humidity 37    
Precipitation  
Precipitation 0.67 in 0.09 in 0.77 in (2006)
Month to date precipitation 0.73 0.78  
Year to date precipitation 6.97 4.95  
Snow  
Snow 0.00 in 0.10 in 3.70 in (1975)
Month to date snowfall 0.3 0.8  
Since 1 July snowfall 25.0 16.9  
Snow Depth 3.00 in    
Sea Level Pressure  
Sea Level Pressure 29.90 in    
Wind  
Wind Speed 15 mph (SSE)    
Max Wind Speed 30 mph    
Max Gust Speed 38 mph    
Visibility 9 miles    
Events Rain    
T = Trace of Precipitation, MM = Missing Value Source: NWS Daily Summary

Daily Weather History Graph

Daily Weather History Graph

Search for Another Location

Airport:

Trip Planner

Search our weather history database for the weather conditions in past years. The results will help you decide how hot, cold, wet, or windy it might be!

Date:

Astronomy

Mar. 09, 2013 Rise Set
Actual Time 6:28 AM CST 6:10 PM CST
Civil Twilight 6:02 AM CST 6:36 PM CST
Nautical Twilight 5:31 AM CST 7:07 PM CST
Astronomical Twilight 5:00 AM CST 7:38 PM CST
Moon 4:52 AM CST (3/9) 4:13 PM CST (3/9)
Length of Visible Light 12h 34m
Length of Day
11h 41m
Waning Crescent, 5% of the Moon is Illuminated
Mar 9
Waning Crescent
Mar 11
New
Mar 19
First Quarter
Mar 27
Full
Apr 2
Last Quarter

Hourly Weather History & Observations

Time (CST) Temp. Windchill Dew Point Humidity Pressure Visibility Wind Dir Wind Speed Gust Speed Precip Events Conditions
12:54 AM 44.1 °F 37.4 °F 28.9 °F 55% 30.09 in 10.0 mi SE 13.8 mph - 0.00 in   Overcast
1:54 AM 43.0 °F 36.4 °F 30.0 °F 60% 30.08 in 10.0 mi SE 12.7 mph - N/A   Overcast
2:43 AM 42.1 °F 34.5 °F 32.0 °F 67% 30.07 in 10.0 mi SSE 15.0 mph - 0.00 in Rain Light Rain
2:54 AM 41.0 °F 34.3 °F 34.0 °F 76% 30.07 in 10.0 mi SSE 11.5 mph - 0.00 in Rain Light Rain
3:09 AM 42.1 °F 35.2 °F 34.0 °F 73% 30.05 in 10.0 mi SE 12.7 mph - 0.00 in   Overcast
3:29 AM 42.1 °F 35.2 °F 34.0 °F 73% 30.05 in 10.0 mi SSE 12.7 mph - 0.00 in Rain Light Rain
3:54 AM 41.0 °F 34.3 °F 35.1 °F 79% 30.07 in 7.0 mi SSE 11.5 mph - 0.02 in Rain Rain
4:23 AM 39.9 °F 32.5 °F 37.0 °F 89% 30.05 in 3.0 mi SSE 12.7 mph - 0.08 in Rain Rain
4:54 AM 39.9 °F 32.5 °F 37.0 °F 89% 30.04 in 3.0 mi SE 12.7 mph - 0.21 in Rain Light Rain
5:29 AM 39.9 °F 31.4 °F 37.0 °F 89% 30.01 in 2.5 mi SE 16.1 mph - 0.10 in Rain Heavy Rain
5:38 AM 39.9 °F 30.5 °F 37.0 °F 89% 30.00 in 5.0 mi SE 19.6 mph - 0.13 in Rain Light Rain
5:54 AM 39.9 °F 31.4 °F 37.0 °F 89% 30.02 in 7.0 mi SE 16.1 mph - 0.13 in Rain Light Rain
6:54 AM 39.9 °F 30.8 °F 37.9 °F 93% 30.01 in 10.0 mi SE 18.4 mph - 0.09 in   Overcast
7:54 AM 41.0 °F 32.5 °F 37.0 °F 86% 30.00 in 10.0 mi SE 17.3 mph - 0.01 in   Overcast
8:54 AM 42.1 °F 34.9 °F 37.9 °F 85% 29.98 in 10.0 mi SE 13.8 mph - N/A   Overcast
9:54 AM 45.0 °F 37.6 °F 37.0 °F 74% 29.95 in 10.0 mi SE 17.3 mph - N/A   Overcast
10:54 AM 46.0 °F 39.9 °F 37.0 °F 71% 29.93 in 10.0 mi SE 13.8 mph - N/A   Overcast
11:54 AM 53.1 °F - 39.9 °F 61% 29.88 in 10.0 mi SE 15.0 mph - N/A   Clear
12:54 PM 57.9 °F - 41.0 °F 53% 29.82 in 10.0 mi SE 16.1 mph - N/A   Clear
1:54 PM 63.0 °F - 41.0 °F 45% 29.78 in 10.0 mi SE 10.4 mph - N/A   Scattered Clouds
2:54 PM 66.0 °F - 39.0 °F 37% 29.74 in 10.0 mi SSE 16.1 mph - N/A   Overcast
3:54 PM 64.9 °F - 39.0 °F 39% 29.74 in 10.0 mi South 13.8 mph - N/A   Overcast
4:54 PM 63.0 °F - 39.9 °F 43% 29.74 in 10.0 mi South 9.2 mph - N/A   Overcast
5:54 PM 61.0 °F - 37.9 °F 42% 29.73 in 10.0 mi SE 11.5 mph - N/A   Overcast
6:54 PM 62.1 °F - 39.9 °F 44% 29.72 in 10.0 mi SSE 12.7 mph - N/A   Overcast
7:54 PM 63.0 °F - 46.9 °F 56% 29.70 in 10.0 mi South 17.3 mph - N/A   Mostly Cloudy
8:54 PM 63.0 °F - 43.0 °F 48% 29.71 in 10.0 mi SSE 20.7 mph - N/A   Overcast
9:54 PM 55.9 °F - 48.0 °F 75% 29.75 in 4.0 mi South 20.7 mph - 0.04 in Rain Rain
10:54 PM 53.1 °F - 48.0 °F 83% 29.73 in 8.0 mi SSE 19.6 mph - 0.15 in Rain Light Rain
11:54 PM 53.1 °F - 46.9 °F 80% 29.71 in 10.0 mi SSE 11.5 mph - 0.02 in Rain Light Rain